weather.gov     
National Weather Service

Regional Weather Roundup
NWS Homepage
This page is being discontinued on March 12, 2014.
The same data is available at this site. Please update your bookmarks.
Thank you, and we apologize for the inconvenience.
Please send an email to SR-SRH.Webmaster@noaa.gov with any concerns.


Current Version
Previous Version:    01  02  03  04  05  06  07  08  09  10  11  12  13  14  15  16  17  18  19  20  21  22  23  24  25  26  27  28  29  30  
   31  32  33  34  35  36  37  38  39  40  41  42  43  44  45  46  47  48  49  50  51  52  53  54  55  56  57  58  59  60  
[Printable]
082
ASUS43 KEAX 291811
RWREAX

WEATHER ROUNDUP FOR EASTERN KANSAS AND NORTHWEST MISSOURI
NATIONAL WEATHER SERVICE KANSAS CITY/PLEASANT HILL MO
1200 PM CST THU JAN 29 2015

KSZ040-057-103>105-MOZ028-029-037-043-291900-
...KANSAS CITY METROPOLITAN AREA...

CITY           SKY/WX    TMP DP  RH WIND       PRES   REMARKS
K.C. INTL      CLOUDY    40  27  59 N21G26    30.35R WCI  30
6HR MIN TEMP:  37; 6HR MAX TEMP:  41;

K.C. DOWNTOWN  CLOUDY    42  26  53 NW17G28   30.35R WCI  34
6HR MIN TEMP:  39; 6HR MAX TEMP:  42; 6HR PCP: TRACE;

LEES SUMMIT    CLOUDY    41  27  57 N17       30.34R WCI  32
6HR MIN TEMP:  37; 6HR MAX TEMP:  41;

OLATHE - IXD   CLOUDY    41  27  57 NW21G29   30.37R WCI  32
6HR MIN TEMP:  37; 6HR MAX TEMP:  41;

OLATHE - OJC   CLOUDY    41  27  57 N21G28    30.35R WCI  32
6HR MIN TEMP:  37; 6HR MAX TEMP:  41;

LAWRENCE       CLOUDY    42  27  55 N28G33    30.39R WCI  32

$$

MOZ001>008-011>017-020>025-030>033-038>040-044>046-053-054-291900-
...NORTHERN AND CENTRAL MISSOURI...

CITY           SKY/WX    TMP DP  RH WIND       PRES   REMARKS
ST. JOSEPH     CLOUDY    40  27  59 NW25G31   30.37  WCI  29
6HR MIN TEMP:  37; 6HR MAX TEMP:  40;

MOSBY          CLOUDY    41  28  60 NW17G24   30.34R WCI  32
WARRENSBURG    CLOUDY    39  28  65 NW18G28   30.33R WCI  30
WHITEMAN AFB   CLOUDY    40  28  61 NW14G24   30.31R WCI  33
6HR MIN TEMP:  39; 6HR MAX TEMP:  40;

CLINTON        CLOUDY    41  32  70 NW21      30.33R WCI  32
SEDALIA        CLOUDY    41  29  62 NW20G25   30.29S WCI  32
6HR MIN TEMP:  39; 6HR MAX TEMP:  43;

WARSAW         NOT AVBL
MARSHALL       CLOUDY    43  32  65 NW17G26   30.29R WCI  35
CHILLICOTHE      N/A     40  30  67 NW9G18    30.30R WCI  34
6HR MIN TEMP:  38; 6HR MAX TEMP:  40;

KIRKSVILLE     CLOUDY    37  30  75 NW18G25   30.23R WCI  27
6HR MIN TEMP:  36; 6HR MAX TEMP:  37; 6HR PCP: TRACE;


$$

MOZ041-047>049-056>058-063>065-088>090-097-291900-
...EASTERN AND SOUTHERN MISSOURI...

CITY           SKY/WX    TMP DP  RH WIND       PRES   REMARKS
ST. LOUIS INTL CLOUDY    42  30  62 NW14G25   30.15R WCI  35
6HR MIN TEMP:  40; 6HR MAX TEMP:  46;

SPIRIT OF STL  CLOUDY    42  29  59 NW17G26   30.17R WCI  34
COLUMBIA       CLOUDY    40  28  62 NW18      30.23S WCI  31
JEFFERSON CITY CLOUDY    41  27  57 NW17G28   30.25R WCI  32
HANNIBAL       CLOUDY    41  28  60 NW17G29   30.18R WCI  32
ROLLA          CLOUDY    38  28  67 NW21G28   30.20R WCI  28
LEBANON        PTSUNNY   39  30  70 NW15G23   30.27R WCI  31
OSAGE BEACH    CLOUDY    39  27  60 NW8G17    30.27R WCI  34
SPRINGFIELD    CLOUDY    39  30  70 NW18      30.30R WCI  30
BRANSON        CLOUDY    41  34  75 NW17G29   30.29R WCI  32
JOPLIN         CLOUDY    40  29  64 N20G28    30.38R WCI  30
WEST PLAINS    CLOUDY    41  32  70 NW14G24   30.22R WCI  33

$$

IAZ060-094-KSZ022-034>040-054-083-096-NEZ052-066-093-291900-
...KANSAS...SOUTHEAST NEBRASKA AND IOWA...

CITY           SKY/WX    TMP DP  RH WIND       PRES   REMARKS
TOPEKA         CLOUDY    42  28  57 NW21G31   30.41R WCI  33
6HR MIN TEMP:  39; 6HR MAX TEMP:  43;

MANHATTAN      CLOUDY    45  28  51 N12G22    30.44R
EMPORIA        CLOUDY    43  28  55 N22G29    30.41R WCI  34
CHANUTE        CLOUDY    45  30  55 NW20G30   30.40R
WICHITA        PTSUNNY   45  27  49 N23G33    30.45R
OMAHA          CLOUDY    38  25  59 N26G32    30.39R WCI  26
LINCOLN        CLOUDY    41  27  57 N21G30    30.43R WCI  32
FALLS CITY     CLOUDY    40  26  57 NW22G36   30.38R WCI  30
LAMONI         CLOUDY    36  27  69 NW21G32   30.29R WCI  25
DES MOINES     CLOUDY    34  25  69 N17G29    30.29R WCI  23

$$





U.S. Dept. of Commerce
NOAA National Weather Service
1325 East West Highway
Silver Spring, MD 20910
E-mail: w-nws.webmaster@noaa.gov
Page last modified: May 16, 2007
NATIONAL WEATHER SERVICE: for Safety, for Work, for Fun - FOR LIFE